Find Shi Jian 26

NORAD ID: 64199 Int'l Des: 2025-115 Owner: CASC Country: CN operational
LEOCIRCULARRETROGRADESSO

当前视图

正在加载3D地球...

关于 Shi Jian 26

正在加载描述...

即将过境

Passes for default location (London). Set your location on the main map for personalized predictions.

高度历史

Loading altitude history...

两行轨道根数

1 64199U 25115A 26151.18545649 .00007089 00000-0 29844-3 0 9994
2 64199 97.4563 229.8244 0020262 55.7480 304.5673 15.23490959 55855
Epoch: May 31, 2026 • Age: 8 hours

当前状态

高度 498.7 km
速度 7.63 km/s
星下点 77.37°N, 5.11°E
发射日期 May 29, 2025
运行时间 1 years
类型 other

技术详情

分类 Payload
质量 1500.00 kg
干质量 1500.00 kg
总质量 1500.00 kg
长度 3.00 m
直径 2.00 m
跨度 12.00 m
形状 Box + 2 Pan
制造商 HARB/DFH
平台类型 CAST-968
阶段状态 In Orbit
所有者/国家 CASC/CN

Most Searched